THOR ABLESTAR DEB, 3810

Orbit data source: Space-Track

THOR ABLESTAR DEB, 3810 is space debris in LEO originally from a launch on Fri, 13 Aug 1965 UTC launched from the Air Force Western Test Range (AFWTR). Debris objects in space refer to the collection of defunct objects orbiting the Earth. Examples of debris include non-operational satellites, rocket bodies, and fragments generated from explosions, collisions, or faulty payload assembly.

Loading next visibility...
Identifier
3810, 1965-065P
Orbit
LEO
Country
Flag of USUS
Related business
Manufacturer
Unknown
Mission
Spacecraft
Bus & Motor
Unknown
Mass
Unknown
Launch date (UTC)
1965-08-13 (60 years ago)
Launch vehicle
Unknown
Launch site
Air Force Western Test Range (AFWTR)
Object type
Payload
Rocket body
Debris
Shape & HBR
Unknown shape, 0.1 m
Radar Cross Section
Small (<0.1 m²)

Expand to show TLE details & history
Last TLE update: 1 day ago

TLE from 1 day ago
0 THOR ABLESTAR DEB
1 03810U 65065P   25290.77087859  .00000669  00000-0  99728-3 0  9992
2 03810  89.9860 216.2253 0057558 272.4937 115.4406 13.51918378226129
Epoch: 2025-10-17T18:30Z
TLE epoch observation values (Epoch: 2025-10-17T18:30:03.910Z)
Latitude
28.56951°
Longitude
-87.79488°
Altitude
1,087.405 km
Speed
7.302 km/s
True Right ascension
14h 24m 55s
True Declination
28° 25' 54"
Sunlit
Object was in daylight at epoch
Visualization orbit readout
Latitude
Unknown
Longitude
Unknown
Altitude
Unknown
Speed
Unknown
Apparent Right ascension
Unknown
Apparent Declination
Unknown
Sunlit
N/A
Visualization observer readout
Local Sidereal Time
18:33:12
Azimuth
Unknown
Elevation
Unknown
Doppler factor
Unknown
Orbital elements
Apogee altitude
1,105.081 km
Perigee altitude
1,019.43 km
Semi-major axis
7,440.393 km
Eccentricity
0.00576
Inclination
89.986°
RAAN
216.2253°
Arg. of periapsis
272.4937°
True anomaly
116.03436°
Mean anomaly
115.4406°
Eccentric anomaly
115.73767°
Mean motion
3.38181 °/min
Orbital period
106.45 mins
BSTAR
0.00099728
Loading maneuver chart data...
Computing Atmospheric mass density...
Loading historical data...
Loading historical data...
Loading historical data...
Loading historical data...
Loading historical data...
Loading historical data...
Loading historical data...

Documentation

Showing up to 5 results
|